Temperature
25 24 24 23 22 20 21 22 23 22 21 21 21 21 20 19 19 18 18 19 19 18 18 18 18 19 18 18 18 18 18 18 18 18 18 18 18 18 18 18 18 18 18 18 18 18 18 17 17
25 25 24 24 20 20 21 22 22 22 22 22 22 20 19 18 18 19 19 18 18 19 18 18 18 18 18 18 18 18 18 18 18 18 18 18 18 18 18 18 18 18 18 18 18 18 18 17 17
26 25 25 21 21 21 22 23 22 22 23 23 21 20 19 19 19 19 19 19 19 18 18 18 18 18 18 18 18 18 18 18 18 18 18 18 18 18 18 18 18 18 18 18 17 17 17 17 17
26 25 24 21 23 23 23 23 23 23 23 22 21 20 19 19 20 20 19 19 19 19 18 18 18 18 18 18 18 18 18 18 18 18 18 18 18 18 18 18 18 18 18 17 17 17 17 17 17
26 26 22 21 23 24 24 24 24 23 22 22 21 19 19 19 20 20 20 19 19 19 19 18 18 18 18 18 18 18 18 18 18 18 18 18 18 18 18 18 18 18 17 17 17 17 17 17 17
27 23 21 22 23 24 24 24 23 22 22 21 20 19 19 19 20 20 20 19 19 19 19 19 18 18 18 18 18 18 18 18 18 18 18 18 18 18 18 18 18 18 17 17 17 17 17 17 17
26 22 22 23 23 24 24 24 23 22 22 21 21 19 19 19 20 20 19 19 19 19 19 19 18 18 18 18 18 18 18 18 18 18 18 18 18 18 18 18 18 17 17 17 17 17 17 17 17
27 22 23 23 24 24 24 24 23 23 22 22 22 20 19 19 20 19 19 19 19 19 19 19 19 18 18 18 18 18 18 18 18 18 18 18 18 18 18 18 17 17 17 17 17 17 17 17 17
27 22 23 24 24 24 24 24 23 23 23 22 22 22 21 20 19 19 19 19 19 19 19 19 19 19 18 18 18 18 18 18 18 18 18 18 18 18 18 18 17 17 17 17 17 17 17 17 17
26 23 24 24 25 24 24 24 24 23 22 22 21 22 21 20 20 19 19 19 19 19 19 19 19 19 19 18 18 18 18 18 18 18 18 18 18 18 18 18 17 17 17 17 17 17 17 17 17
26 24 25 26 26 26 25 25 24 23 21 22 22 21 21 20 20 20 20 20 20 19 19 19 19 19 19 19 18 18 18 18 18 18 18 18 18 18 18 18 18 18 17 17 17 17 17 17 17
26 25 26 26 27 26 25 24 24 23 24 24 24 23 21 20 20 20 20 20 20 19 19 19 19 19 19 18 18 18 18 18 18 18 18 18 18 18 18 18 18 18 17 17 17 17 17 17 17
26 26 27 27 27 26 25 24 24 23 24 24 23 22 21 21 21 21 21 20 20 20 19 19 19 19 19 18 18 18 18 18 18 18 18 18 18 18 18 18 17 17 17 17 17 17 17 17 17
26 26 26 26 26 26 24 24 24 23 24 23 22 22 22 21 21 21 21 20 20 20 20 19 19 19 19 19 19 18 18 18 18 18 18 18 18 18 18 18 17 17 17 17 17 17 17 17 17
27 25 25 26 26 25 25 24 23 23 23 22 21 21 21 21 21 22 22 21 21 21 20 20 19 19 19 19 18 18 18 18 18 18 18 18 18 18 18 18 18 17 17 17 17 17 17 17 17
26 25 25 26 25 25 25 24 23 23 23 22 21 21 21 21 22 22 22 21 21 21 20 20 19 19 19 19 18 18 18 18 18 18 18 18 18 18 18 18 18 17 17 17 17 17 17 17 17
24 24 25 26 26 25 24 24 23 23 22 22 21 21 22 22 22 22 22 22 21 21 21 20 20 19 19 19 18 18 18 18 18 18 18 18 18 18 18 17 17 17 17 17 17 17 17 17 17
25 25 25 25 25 24 24 23 22 22 22 22 22 22 22 22 23 23 22 22 21 21 21 20 20 19 19 19 18 18 18 18 18 18 18 18 18 18 18 18 17 17 17 17 17 17 17 17 17
26 25 25 25 25 24 23 23 22 22 22 22 22 22 22 23 23 22 22 22 21 21 21 20 20 20 19 19 19 18 18 18 18 18 18 18 18 18 18 17 17 17 17 17 17 17 17 17 17
25 25 25 25 25 24 23 23 22 22 22 22 22 22 23 23 23 23 22 22 22 22 21 21 20 20 19 19 19 19 18 18 18 18 18 18 18 18 18 17 17 17 17 17 17 17 17 17 17
26 25 25 25 24 23 24 23 23 22 22 23 23 23 23 23 23 23 23 22 22 22 21 21 21 20 20 19 19 18 18 18 18 18 18 18 18 17 17 17 17 17 17 17 17 17 17 17 17
26 26 25 25 24 22 24 23 22 21 21 21 22 23 23 23 23 24 23 23 22 22 21 21 21 20 20 19 19 18 18 18 18 18 18 18 18 18 17 17 17 17 17 17 17 17 17 17 17
26 25 24 24 23 22 22 22 22 21 21 21 22 23 23 24 24 24 24 24 23 22 21 21 20 20 20 19 19 19 18 18 18 18 18 17 18 18 17 17 17 17 17 17 17 17 17 17 17
25 23 22 20 20 22 22 22 22 20 21 22 22 23 24 24 24 24 24 24 23 22 21 21 21 20 20 19 19 19 18 18 18 18 18 18 18 18 18 18 17 17 17 17 17 17 17 17 16
24 22 21 22 21 21 21 21 21 22 21 22 22 23 24 24 24 24 24 23 23 22 22 21 21 20 20 19 19 19 19 18 18 18 18 18 18 18 18 18 17 17 17 17 17 17 17 17 16
23 22 22 22 22 21 21 21 22 22 22 23 23 23 24 24 24 24 24 24 23 23 22 21 21 20 20 20 19 19 19 19 19 18 18 18 18 18 18 18 17 17 17 17 17 17 17 17 16
23 21 21 19 20 21 21 21 21 22 21 21 22 22 23 24 24 25 24 24 24 23 22 22 21 21 20 20 19 19 19 19 19 19 18 18 18 18 18 18 18 17 17 17 17 17 17 16 16
23 19 18 19 20 21 22 22 21 22 21 20 20 21 22 23 24 24 24 24 23 23 22 22 21 21 20 20 19 19 19 19 18 18 18 18 18 18 18 18 17 17 17 17 17 17 16 16 16
22 21 18 17 19 20 21 21 21 20 20 20 20 21 22 23 23 24 24 23 23 23 22 21 21 21 20 20 19 19 19 19 18 18 18 18 18 18 18 17 17 17 17 17 17 16 16 16 16
23 21 19 21 20 18 19 21 21 20 19 20 20 21 22 23 23 23 23 23 23 22 22 21 21 21 20 20 19 19 19 18 18 18 18 18 18 18 17 17 17 17 17 17 16 16 16 16 16
Wind_Speed
9 8 3 2 6 6 5 5 3 4 4 4 7 7 7 5 3 5 2 6 7 5 7 10 11 12 13 13 14 14 14 15 15 15 15 15 15 16 16 16 16 17 17 18 18 18 18 18 18
7 5 2 4 6 5 4 4 4 4 5 6 7 7 7 5 4 7 4 5 7 7 7 9 11 12 12 13 13 13 13 14 14 14 14 14 15 15 15 15 16 16 17 17 17 17 17 17 17
5 2 4 5 5 4 2 1 5 5 5 4 5 6 5 4 5 5 5 8 7 6 7 9 12 11 11 12 12 12 12 13 13 13 13 14 14 14 15 15 15 16 16 16 16 16 16 16 16
3 3 5 6 4 1 4 4 6 6 5 6 5 6 5 4 5 6 10 9 8 5 6 9 11 11 11 11 11 11 11 12 12 12 12 12 13 13 14 14 14 15 15 16 15 15 15 15 14
3 5 7 5 3 2 3 5 3 4 4 5 5 6 4 4 9 12 10 9 8 5 6 8 10 10 10 10 10 10 11 11 11 11 11 11 12 12 13 13 13 13 14 15 14 14 14 13 13
4 5 6 2 2 3 3 3 4 5 6 6 5 5 3 4 9 10 9 8 6 5 5 7 9 10 10 10 9 9 10 10 10 10 10 11 11 11 12 12 12 12 13 13 13 13 13 12 12
5 5 4 3 2 1 3 3 4 6 6 4 5 5 3 4 7 9 8 7 5 5 4 4 6 8 9 9 9 9 9 9 9 9 9 10 10 10 10 10 10 11 11 11 11 12 12 11 11
5 5 4 2 3 2 4 4 4 6 5 6 5 7 6 6 9 9 8 6 5 4 3 3 4 5 6 7 8 8 8 8 8 8 9 8 8 8 8 8 9 9 9 10 10 10 10 9 9
4 5 3 4 5 4 6 5 4 4 7 4 3 5 7 14 13 10 7 5 4 5 3 3 3 4 4 4 6 7 7 7 6 6 7 7 6 6 6 7 7 7 8 8 8 8 8 8 8
5 4 6 5 6 6 7 6 7 5 5 3 6 8 14 15 13 11 9 9 7 6 5 3 3 4 4 4 4 4 5 5 5 5 5 6 5 4 4 5 5 5 6 6 6 7 7 6 6
4 5 4 3 5 8 8 7 6 9 5 7 10 14 17 15 12 10 9 8 8 6 5 5 4 4 4 3 4 4 4 4 4 4 4 5 4 3 3 3 3 4 4 4 4 4 4 4 4
3 2 3 4 5 7 8 7 5 5 6 8 13 17 17 15 13 12 11 9 7 6 6 5 5 4 4 3 3 4 3 3 3 3 4 4 2 2 2 1 2 2 2 3 3 3 3 3 3
2 1 1 4 6 7 8 6 5 2 5 12 14 15 15 14 12 10 8 7 7 8 7 6 6 5 4 3 3 3 3 3 4 3 4 4 3 2 1 1 1 1 1 2 2 2 2 2 1
1 2 3 4 5 4 7 3 3 3 9 13 14 14 14 13 12 9 8 8 8 8 8 6 6 6 5 4 3 3 4 4 4 3 4 5 4 3 2 1 1 1 2 2 2 2 2 1 1
3 5 6 3 4 3 7 2 3 5 11 12 12 12 12 11 11 11 11 10 9 8 7 7 7 6 5 5 4 4 4 4 3 3 4 4 5 4 4 2 2 2 2 2 2 2 2 1 1
5 6 2 2 3 4 7 5 5 9 12 11 10 11 10 10 11 10 10 8 8 7 7 7 7 7 6 5 4 3 4 4 4 4 4 5 6 6 4 2 2 3 3 2 2 1 1 1 1
5 2 1 3 3 4 5 5 5 9 11 11 10 10 10 9 9 9 9 9 9 9 8 7 6 7 7 6 4 3 3 3 3 3 4 5 6 6 5 3 3 4 3 2 2 2 2 2 2
2 1 2 4 3 4 4 5 4 9 10 9 9 8 9 10 11 8 8 8 8 8 8 8 7 7 6 5 3 2 1 1 2 3 4 4 5 6 5 4 3 4 2 2 2 2 2 2 2
4 3 3 4 1 3 5 5 5 8 8 8 9 9 9 10 7 6 8 8 8 8 8 8 8 7 6 4 3 3 2 2 1 2 4 5 5 5 5 3 2 3 3 3 3 2 3 2 2
4 2 2 2 2 2 2 2 2 8 10 11 11 10 10 8 5 6 8 8 9 9 9 8 8 8 7 5 3 3 2 2 2 1 2 4 5 5 5 4 3 3 2 3 3 3 2 2 3
3 5 4 3 2 5 3 4 2 3 5 6 8 8 8 11 10 9 9 10 9 10 11 10 8 8 7 6 3 3 2 1 0 1 1 2 4 4 4 4 3 3 3 3 3 4 4 3 2
4 4 6 4 4 2 3 2 6 4 5 8 9 10 10 11 10 9 10 10 11 11 9 8 8 7 7 7 6 5 4 3 3 2 2 2 3 3 4 4 4 3 2 3 3 3 3 3 3
4 3 5 4 5 3 3 2 8 2 5 10 11 12 12 11 11 11 12 11 10 9 9 8 8 7 7 7 7 6 4 3 2 1 1 2 2 3 3 4 4 3 3 3 3 2 3 3 3
5 8 8 7 5 1 2 3 7 5 8 8 9 10 11 10 10 10 9 8 8 8 8 8 8 7 7 7 7 7 6 5 4 3 3 2 1 1 2 3 3 3 3 3 3 3 3 3 3
6 7 5 4 4 5 2 3 9 8 7 8 8 9 9 9 9 9 9 10 10 9 9 8 9 8 7 8 7 7 7 7 6 5 4 3 2 2 2 2 3 2 3 3 3 2 3 3 3
5 9 9 6 6 5 2 5 8 6 5 3 4 5 5 7 8 10 10 11 11 11 10 10 9 8 7 8 7 6 7 5 5 5 4 4 3 3 3 3 3 3 3 2 2 2 2 2 3
7 4 7 8 4 1 5 7 8 3 4 1 1 2 4 7 9 9 9 9 10 10 10 10 10 8 7 7 6 6 6 6 5 5 4 3 3 3 3 3 3 2 2 2 2 2 2 1 2
5 9 7 7 7 3 5 5 5 6 5 3 2 3 4 5 6 6 6 7 8 8 8 8 8 8 7 7 7 6 6 6 5 4 4 4 3 2 3 2 2 1 1 1 1 1 1 2 2
5 5 6 5 6 7 4 7 6 7 6 6 6 4 4 5 6 6 6 6 6 6 7 7 7 6 6 6 6 6 5 5 5 4 4 4 3 3 3 3 2 2 1 1 1 0 1 2 2
4 7 8 6 4 5 5 8 4 4 4 4 4 2 2 3 4 5 6 6 6 5 5 6 7 7 6 6 5 5 5 5 5 4 4 4 3 3 3 3 3 2 1 1 1 1 1 2 2
Wind_Direction
149 143 141 100 56 49 32 1 35 55 53 56 77 81 88 69 88 130 122 124 121 115 123 120 114 111 110 108 107 106 106 106 106 106 106 106 105 105 106 106 107 107 106 106 106 107 107 107 107
142 146 109 62 72 57 2 359 63 75 131 123 83 74 70 63 69 107 123 129 122 122 122 124 120 116 113 111 110 108 107 106 108 107 108 108 107 106 105 106 107 108 108 106 106 107 108 109 108
152 153 82 68 78 124 142 78 112 108 111 84 76 66 73 97 121 136 146 131 114 113 120 129 125 120 116 114 112 109 108 107 107 107 108 109 109 108 108 107 107 107 108 107 108 107 108 110 111
132 61 56 64 56 193 167 154 138 119 73 57 86 70 67 95 137 136 131 125 116 111 125 134 128 124 120 116 114 113 111 109 109 108 110 112 112 111 111 111 110 110 109 110 110 109 109 111 111
71 74 59 47 14 22 122 146 131 100 83 71 83 83 54 45 104 121 128 129 128 123 131 138 132 129 125 122 119 117 114 112 111 111 110 112 113 113 114 113 113 112 112 113 112 112 111 112 111
63 66 75 60 22 51 106 120 100 92 94 92 89 91 61 104 117 129 128 127 131 130 129 139 137 135 131 128 125 120 118 115 114 114 112 112 113 113 114 114 116 115 113 114 113 112 112 112 113
99 89 114 133 106 120 159 114 123 122 114 122 117 100 105 136 130 124 118 116 116 120 117 121 131 136 136 133 130 125 122 121 122 119 116 114 114 116 118 118 119 117 116 115 114 113 113 113 115
120 99 91 123 147 187 150 119 123 124 119 127 123 137 169 171 131 114 107 110 119 120 109 110 113 119 125 133 134 130 126 126 127 126 122 118 115 117 120 121 124 121 120 120 118 117 116 115 118
93 80 151 190 175 178 146 129 141 107 117 130 126 150 155 138 131 123 120 124 148 155 137 128 122 120 122 131 134 132 129 128 124 122 122 109 95 99 110 121 125 125 123 124 124 121 118 113 114
84 128 206 200 175 156 153 145 150 123 127 112 89 101 125 139 146 151 161 170 180 181 179 168 155 150 144 144 121 117 114 113 112 108 108 105 100 99 100 110 115 118 119 121 119 116 109 103 104
119 171 198 184 161 140 142 142 138 135 171 183 157 147 147 153 159 169 178 183 189 185 185 178 173 168 159 142 131 121 114 114 117 125 125 118 104 90 81 75 76 87 96 89 91 87 93 105 111
126 231 174 159 137 136 145 137 129 167 203 167 153 150 154 164 174 181 185 188 183 182 194 185 176 170 171 160 148 144 141 142 146 155 155 138 121 109 100 87 71 84 101 99 87 87 94 106 117
78 355 36 114 117 126 121 128 141 166 120 126 139 151 164 174 181 187 185 181 179 188 194 188 178 177 170 164 174 161 168 172 174 173 175 164 159 159 158 154 140 142 138 133 122 115 109 101 101
120 67 64 81 100 114 124 116 113 156 132 135 151 165 176 182 183 181 181 184 189 194 193 184 182 181 172 170 177 174 177 178 181 190 189 185 182 182 181 183 190 204 182 167 154 144 136 130 133
82 64 48 55 87 121 110 86 207 162 143 150 165 175 182 189 186 190 192 189 190 192 189 185 185 177 173 175 186 184 178 173 182 200 204 200 196 189 183 179 196 216 196 171 144 136 134 147 136
59 66 56 293 113 129 132 213 215 156 154 165 176 181 188 198 199 199 192 188 185 181 181 190 190 175 177 178 183 179 179 186 196 202 205 206 204 197 185 186 208 210 186 168 159 165 149 156 149
40 87 240 279 185 147 162 221 205 165 165 177 187 190 192 200 206 202 193 188 184 181 179 184 182 173 176 174 170 169 172 192 201 198 204 207 207 203 191 199 212 189 164 172 194 175 165 169 170
206 194 236 240 224 153 188 231 193 174 179 189 195 196 198 205 211 198 191 186 179 175 177 180 177 170 162 153 143 143 163 202 210 208 213 209 207 204 195 203 204 177 164 185 187 177 156 165 169
167 177 230 248 228 160 208 229 205 179 187 198 206 205 210 218 213 184 182 178 170 171 177 182 177 169 158 153 162 169 200 216 219 224 224 217 211 205 193 200 189 176 186 197 183 173 160 166 149
155 181 249 311 23 135 199 260 216 190 202 203 206 210 212 213 199 187 181 179 179 181 184 183 182 175 173 171 164 166 167 195 206 217 223 224 216 203 197 191 192 184 187 185 182 175 170 184 169
200 190 201 201 41 53 70 342 275 228 219 213 212 211 208 204 204 195 187 189 184 186 188 188 186 180 177 165 141 121 94 59 77 219 233 237 216 202 196 194 187 182 183 197 196 187 181 194 197
257 216 173 152 104 12 70 285 286 248 243 225 217 211 211 209 202 197 191 191 192 193 185 180 180 178 175 165 168 169 175 193 213 208 213 231 207 194 191 195 191 184 187 207 213 197 192 180 200
208 99 110 99 108 64 41 143 287 314 252 244 226 217 215 209 200 198 198 195 192 185 180 179 175 180 176 176 181 181 185 194 192 177 191 222 214 203 202 202 197 193 195 209 213 202 198 193 197
124 72 57 52 68 36 249 167 274 246 234 245 227 219 214 206 198 195 190 179 181 176 176 175 178 186 181 182 183 187 189 187 182 191 198 213 218 218 215 205 200 199 200 210 216 209 205 206 202
98 92 43 13 15 253 262 185 249 257 250 236 228 220 213 199 191 187 179 180 182 179 178 178 182 190 187 187 192 194 194 191 195 201 202 201 204 216 227 209 203 205 210 209 203 203 211 208 210
166 140 155 182 209 265 324 234 256 275 281 248 220 206 193 192 192 191 188 186 185 183 179 181 189 192 188 192 199 196 193 195 205 206 200 201 205 213 213 201 199 198 207 207 198 212 224 219 223
138 158 157 133 147 170 280 285 301 314 344 1 142 157 188 190 190 192 189 187 184 184 184 185 187 190 192 195 194 197 195 197 202 199 194 198 203 206 191 180 174 184 203 205 197 218 228 211 234
132 141 106 123 145 215 285 284 265 278 277 279 236 214 210 191 185 184 181 183 184 185 181 178 183 192 195 193 196 202 197 195 195 192 195 197 198 189 165 159 160 165 176 187 180 215 221 198 233
105 94 101 110 145 155 221 266 232 230 230 230 233 225 208 194 187 173 163 165 168 169 171 178 182 187 191 194 194 191 189 187 184 191 199 194 186 174 168 172 161 154 149 151 149 203 220 223 244
151 155 145 147 189 167 175 256 269 231 232 227 238 243 205 184 177 165 155 150 152 163 173 181 185 188 189 187 184 182 175 173 178 188 191 179 175 170 165 160 150 155 146 133 149 205 233 231 237
Height
1490 1491 1492 1494 1499 1512 1518 1512 1506 1507 1509 1509 1509 1511 1513 1517 1521 1527 1524 1524 1525 1526 1527 1529 1530 1530 1531 1531 1532 1533 1533 1533 1534 1535 1535 1536 1536 1537 1538 1539 1539 1540 1541 1542 1542 1544 1545 1547 1548
1491 1492 1495 1496 1510 1527 1523 1511 1510 1509 1510 1510 1512 1513 1515 1518 1520 1522 1523 1525 1527 1528 1530 1531 1532 1533 1534 1534 1535 1535 1536 1536 1537 1537 1538 1539 1539 1540 1541 1542 1542 1543 1544 1544 1546 1547 1548 1549 1551
1493 1494 1496 1501 1516 1525 1520 1512 1510 1510 1511 1511 1514 1516 1518 1521 1522 1523 1525 1527 1529 1530 1532 1533 1535 1535 1536 1537 1537 1538 1538 1539 1540 1540 1541 1542 1542 1543 1544 1544 1545 1546 1547 1547 1549 1550 1551 1552 1553
1494 1496 1499 1509 1517 1514 1512 1511 1511 1511 1513 1514 1515 1519 1522 1524 1525 1526 1527 1529 1530 1532 1534 1535 1536 1537 1538 1539 1540 1540 1541 1542 1542 1543 1544 1544 1545 1546 1546 1547 1548 1549 1550 1551 1552 1553 1554 1555 1557
1495 1497 1508 1519 1516 1511 1510 1511 1512 1512 1514 1516 1517 1521 1524 1526 1527 1528 1529 1531 1532 1534 1536 1537 1538 1539 1540 1541 1542 1543 1543 1544 1545 1545 1546 1547 1547 1548 1549 1550 1551 1552 1553 1554 1554 1556 1557 1558 1559
1497 1500 1520 1526 1518 1512 1511 1513 1514 1514 1516 1518 1520 1522 1526 1528 1529 1530 1531 1533 1535 1536 1538 1539 1540 1541 1542 1543 1544 1545 1546 1546 1547 1548 1548 1549 1550 1551 1551 1552 1553 1554 1555 1556 1557 1558 1559 1561 1562
1499 1507 1519 1520 1519 1516 1513 1513 1515 1515 1518 1520 1521 1524 1527 1529 1531 1532 1533 1535 1536 1538 1539 1541 1542 1543 1544 1545 1546 1547 1548 1549 1549 1550 1551 1551 1552 1553 1553 1554 1555 1557 1558 1559 1560 1561 1562 1563 1564
1498 1506 1517 1519 1519 1516 1513 1514 1516 1517 1519 1521 1522 1523 1526 1529 1531 1533 1535 1536 1538 1539 1541 1542 1543 1545 1546 1547 1548 1549 1550 1550 1551 1552 1553 1553 1554 1555 1556 1556 1558 1559 1560 1561 1562 1563 1564 1566 1567
1499 1511 1521 1517 1516 1513 1512 1514 1517 1518 1519 1522 1522 1524 1526 1529 1531 1534 1536 1537 1539 1540 1542 1544 1545 1546 1547 1548 1549 1550 1551 1552 1553 1553 1554 1555 1556 1557 1558 1558 1560 1561 1562 1563 1564 1565 1566 1568 1569
1500 1515 1513 1507 1507 1508 1511 1513 1516 1519 1520 1522 1523 1525 1527 1529 1532 1534 1536 1537 1539 1541 1543 1545 1546 1547 1549 1550 1551 1552 1553 1554 1554 1555 1556 1557 1558 1558 1559 1560 1561 1563 1564 1565 1566 1567 1568 1569 1570
1500 1507 1504 1504 1504 1507 1510 1514 1516 1518 1521 1520 1521 1523 1527 1529 1532 1535 1537 1539 1540 1542 1544 1545 1547 1549 1550 1551 1552 1553 1554 1555 1556 1556 1557 1558 1559 1560 1561 1562 1563 1564 1565 1566 1567 1568 1569 1571 1572
1501 1502 1502 1503 1505 1508 1511 1513 1516 1517 1517 1518 1521 1523 1526 1529 1532 1534 1537 1539 1541 1543 1545 1547 1548 1550 1551 1552 1553 1554 1555 1556 1557 1558 1559 1559 1560 1561 1562 1563 1564 1565 1566 1567 1568 1569 1571 1572 1573
1502 1502 1502 1503 1505 1508 1511 1514 1516 1518 1518 1520 1523 1526 1528 1530 1533 1536 1538 1540 1542 1543 1545 1547 1549 1550 1552 1553 1554 1555 1556 1557 1558 1559 1560 1561 1561 1562 1563 1564 1565 1566 1567 1568 1569 1570 1571 1572 1573
1503 1503 1504 1505 1506 1510 1512 1515 1517 1519 1520 1521 1524 1526 1528 1530 1533 1536 1538 1540 1542 1544 1546 1548 1549 1551 1552 1554 1555 1556 1557 1558 1559 1560 1560 1561 1562 1563 1564 1565 1566 1567 1568 1569 1570 1571 1571 1572 1573
1503 1506 1507 1508 1508 1511 1514 1520 1518 1518 1520 1522 1525 1527 1529 1531 1533 1535 1537 1539 1542 1544 1546 1548 1549 1551 1553 1554 1556 1557 1558 1558 1559 1560 1560 1561 1562 1563 1564 1565 1566 1567 1568 1569 1570 1570 1571 1572 1573
1505 1513 1519 1512 1510 1512 1518 1526 1517 1518 1520 1522 1525 1527 1529 1531 1532 1535 1537 1539 1542 1544 1546 1548 1549 1551 1552 1554 1556 1557 1558 1558 1559 1560 1560 1561 1562 1563 1564 1565 1565 1566 1567 1568 1569 1570 1570 1571 1572
1516 1524 1523 1516 1510 1512 1517 1521 1515 1517 1519 1521 1524 1525 1527 1529 1531 1534 1536 1539 1541 1543 1545 1547 1549 1550 1552 1554 1555 1556 1557 1558 1558 1559 1560 1560 1561 1562 1563 1564 1565 1566 1566 1567 1568 1569 1569 1570 1570
1523 1523 1522 1520 1511 1512 1517 1517 1514 1516 1518 1520 1522 1524 1526 1527 1529 1532 1535 1537 1540 1542 1544 1546 1548 1550 1551 1553 1554 1555 1556 1557 1557 1558 1559 1560 1560 1561 1562 1563 1564 1564 1565 1566 1567 1567 1568 1569 1569
1512 1518 1521 1516 1509 1513 1517 1517 1515 1516 1518 1520 1521 1522 1524 1525 1528 1531 1534 1536 1539 1541 1543 1545 1547 1548 1550 1551 1553 1554 1555 1556 1556 1557 1558 1559 1559 1560 1561 1562 1562 1563 1564 1564 1565 1566 1566 1567 1567
1511 1518 1519 1515 1509 1513 1517 1518 1514 1514 1515 1516 1518 1519 1521 1524 1527 1529 1531 1534 1536 1539 1541 1543 1545 1547 1549 1550 1552 1553 1554 1554 1555 1556 1557 1558 1558 1559 1560 1561 1561 1562 1563 1563 1564 1564 1565 1565 1566
1511 1515 1515 1517 1514 1514 1517 1522 1518 1514 1514 1516 1516 1517 1519 1521 1523 1526 1528 1531 1534 1536 1539 1541 1543 1545 1547 1549 1550 1551 1552 1553 1554 1554 1555 1556 1557 1558 1558 1559 1560 1560 1561 1562 1562 1563 1563 1563 1563
1513 1504 1507 1512 1521 1530 1525 1540 1522 1516 1515 1513 1513 1514 1514 1517 1520 1523 1526 1528 1531 1534 1537 1539 1541 1543 1545 1547 1548 1549 1550 1551 1552 1553 1553 1555 1556 1556 1557 1557 1558 1559 1559 1560 1560 1561 1561 1561 1561
1504 1502 1507 1513 1522 1532 1530 1539 1530 1517 1516 1510 1508 1509 1510 1512 1515 1519 1522 1525 1528 1532 1534 1537 1539 1541 1543 1545 1546 1548 1549 1550 1551 1551 1552 1553 1554 1555 1555 1556 1556 1557 1557 1558 1558 1558 1559 1559 1559
1499 1507 1515 1524 1531 1544 1534 1539 1535 1521 1512 1505 1503 1504 1506 1508 1512 1515 1519 1523 1526 1529 1532 1535 1537 1538 1540 1542 1544 1545 1547 1548 1549 1549 1550 1551 1552 1553 1553 1554 1555 1555 1555 1555 1556 1556 1556 1556 1556
1502 1521 1542 1545 1554 1549 1534 1536 1530 1508 1503 1501 1500 1501 1503 1506 1508 1512 1515 1519 1522 1526 1529 1532 1534 1536 1538 1540 1542 1543 1545 1546 1547 1548 1548 1549 1550 1551 1552 1552 1553 1554 1554 1554 1554 1553 1553 1553 1553
1505 1515 1540 1552 1556 1549 1536 1536 1518 1502 1500 1498 1498 1499 1501 1503 1506 1508 1511 1515 1519 1523 1526 1529 1531 1533 1536 1538 1539 1541 1543 1544 1545 1546 1547 1548 1548 1549 1550 1551 1551 1551 1552 1552 1551 1551 1551 1551 1550
1507 1514 1515 1536 1543 1548 1542 1529 1511 1500 1498 1497 1497 1497 1499 1501 1503 1506 1509 1513 1517 1520 1523 1526 1528 1531 1533 1535 1537 1539 1540 1541 1543 1544 1545 1546 1547 1547 1548 1549 1549 1549 1549 1549 1549 1549 1548 1548 1547
1497 1508 1524 1537 1551 1553 1540 1533 1525 1508 1503 1499 1498 1497 1498 1499 1502 1504 1508 1511 1515 1518 1521 1524 1526 1528 1530 1532 1534 1536 1537 1539 1540 1541 1542 1543 1544 1545 1546 1546 1547 1547 1547 1547 1547 1546 1546 1545 1544
1503 1511 1522 1534 1535 1549 1551 1536 1506 1503 1500 1499 1497 1496 1497 1499 1501 1503 1506 1509 1513 1516 1519 1521 1523 1525 1527 1529 1531 1532 1534 1536 1538 1539 1540 1541 1542 1543 1544 1544 1544 1544 1544 1544 1544 1544 1543 1542 1541
1495 1504 1515 1527 1534 1540 1542 1531 1497 1498 1497 1497 1496 1497 1497 1498 1500 1503 1505 1507 1511 1514 1517 1519 1521 1523 1525 1527 1529 1530 1532 1534 1535 1536 1538 1539 1540 1541 1541 1542 1542 1542 1542 1542 1541 1541 1540 1540 1539